www.pogodaiklimat.ru

Погода и климат >> Архив погоды >> Кувейт >> Сулайбия


ПОГОДА в Сулайбии

  • Прогноз погоды в Сулайбии
  • Монитор погоды в Сулайбии

АРХИВ ПОГОДЫ в Сулайбии

Время (UTC), дата Ветер
(напр.,м/с)
 
Видим.   Явления Облачность Т
(С)
Тd
(С)
f
(%)
Тe
(С)
Тes
(С)
Комфортность P
(гПа)
Po
(гПа)
Тmin
(С)
Tmax
(С)
R
(мм)
R24
(мм)
S
(см)
03 19.08 ЮЗ 4-6
{6}
н/о н/о +30.9 +6.0 21 +29 +29 жарко 1003.7 997.5 10
06 19.08 З 4-6
{6}
н/о н/о +40.1 +6.4 13 +37 +37 очень
жарко
1004.4 998.4 282
09 19.08 СЗ 3-6
{9}
н/о н/о +43.6 +5.5 10 +41 +41 опасность
перегрева
1003.6 997.7 417
12 19.08 СЗ 6-12
{12}
н/о н/о +44.9 +4.9 9 +42 +42 опасность
перегрева
1002.3 996.4 345
15 19.08 СЗ 5-8
{10}
н/о н/о +43.3 +2.2 8 +40 +40 очень
жарко
1002.7 996.8 57
18 19.08 З 3-3
{10}
н/о н/о +37.2 +3.2 12 +34 +34 очень
жарко
1004.7 998.6
21 19.08 З 1-1
{4}
н/о н/о +32.8 +2.6 15 +30 +30 жарко 1004.2 998.0 +30.0 +45.6
00 20.08 ЮЗ 2-3
{4}
н/о н/о +30.4 +4.7 20 +29 +29 жарко 1003.7 997.5
03 20.08 ЮЗ 3-4
{4}
н/о н/о +29.4 +4.2 20 +28 +28 жарко 1004.8 998.6 9
06 20.08 СВ 2-3
{4}
н/о н/о +40.9 +6.6 13 +38 +38 очень
жарко
1005.5 999.5 282
09 20.08 С 2-4
{6}
н/о н/о +45.4 +5.5 9 +43 +43 опасность
перегрева
1004.3 998.4 408
12 20.08 С 3-7
{11}
н/о н/о +46.6 +2.0 7 +43 +43 опасность
перегрева
1002.6 996.7 340
15 20.08 СЗ 3-5
{9}
н/о н/о +44.6 +1.4 7 +41 +41 опасность
перегрева
1002.4 996.5 53
18 20.08 Ю 2-2
{9}
н/о н/о +36.8 +4.7 14 +34 +34 очень
жарко
1003.7 997.6
21 20.08 ЮЗ 4-4
{5}
н/о н/о +33.4 +0.5 12 +30 +30 жарко 1003.4 997.3 +28.7 +47.8
00 21.08 ЮЗ 3-3
{5}
н/о н/о +31.1 +3.2 17 +29 +29 жарко 1003.3 997.1
03 21.08 ЮЗ 3-4
{4}
н/о н/о +30.4 +3.4 18 +28 +28 жарко 1003.6 997.4 8
06 21.08 СЗ 4-5
{6}
н/о н/о +41.1 +5.3 11 +38 +38 очень
жарко
1004.5 998.5 266
09 21.08 С 3-6
{8}
н/о н/о +47.2 +2.2 7 +44 +44 опасность
перегрева
1002.8 996.9 408
12 21.08 СЗ 3-6
{9}
н/о н/о +48.4 -1.9 5 +44 +44 опасность
перегрева
1000.9 995.1 354
15 21.08 С 5-8
{10}
н/о н/о +45.9 -1.5 5 +42 +42 опасность
перегрева
1000.6 994.7 53
18 21.08 СЗ 1-2
{10}
н/о н/о +38.1 +3.4 12 +35 +35 очень
жарко
1002.0 996.0
21 21.08 З 3-4
{4}
н/о н/о +34.8 +0.2 11 +31 +31 жарко 1001.7 995.6 +30.0 +48.8
00 22.08 СЗ 7-9
{11}
н/о н/о +36.9 +3.6 13 +34 +34 очень
жарко
1001.8 995.7
03 22.08 СЗ 6-9
{12}
н/о н/о +34.8 +7.3 18 +33 +33 жарко 1002.7 996.6 9
06 22.08 СЗ 5-6
{12}
н/о н/о +40.1 +6.7 13 +37 +37 очень
жарко
1003.2 997.2 277
09 22.08 СЗ 6-9
{11}
н/о н/о +45.3 +4.3 9 +42 +42 опасность
перегрева
1001.4 995.5 418
12 22.08 СЗ 7-11
{12}
н/о н/о +46.5 +1.8 7 +43 +43 опасность
перегрева
1000.3 994.4 365
15 22.08 СЗ 6-8
{11}
н/о н/о +44.0 +1.6 8 +41 +41 опасность
перегрева
999.9 994.0 56
18 22.08 З 4-4
{11}
н/о н/о +37.1 -1.2 9 +33 +33 жарко 1001.7 995.6
21 22.08 СЗ 7-10
{10}
н/о н/о +36.9 +4.7 14 +34 +34 очень
жарко
1001.9 995.8 +34.6 +47.4
00 23.08 СЗ 6-8
{11}
н/о н/о +34.0 +4.7 16 +31 +31 жарко 1001.9 995.8
03 23.08 СЗ 4-6
{10}
н/о н/о +32.9 +5.2 18 +31 +31 жарко 1002.7 996.6 8
06 23.08 СЗ 5-8
{10}
н/о н/о +38.6 +4.7 12 +36 +36 очень
жарко
1003.4 997.4 282
09 23.08 СЗ 4-8
{9}
н/о н/о +44.9 -0.7 6 +41 +41 опасность
перегрева
1001.7 995.8 421
12 23.08 СЗ 4-7
{9}
н/о н/о +47.6 -4.2 4 +43 +43 опасность
перегрева
1000.4 994.6 359
15 23.08 СЗ 4-5
{9}
н/о н/о +44.8 -2.8 5 +41 +41 опасность
перегрева
1000.3 994.4 51
18 23.08 Ю 5-7
{9}
н/о н/о +36.7 +16.0 29 +39 +39 очень
душно
1002.1 996.0
21 23.08 СЗ 4-6
{7}
н/о н/о +36.0 +3.1 13 +33 +33 жарко 1002.0 995.9 +32.5 +48.1
00 24.08 СЗ 4-5
{8}
н/о н/о +33.9 +5.7 17 +32 +32 жарко 1002.1 996.0
03 24.08 СЗ 2-3
{6}
н/о н/о +31.5 +6.7 21 +30 +30 жарко 1003.5 997.3 6
06 24.08 С 4-6
{7}
н/о н/о +36.1 +20.3 40 +42 +42 опасность
перегрева
1004.4 998.3 258
09 24.08 В 3-6
{7}
н/о н/о +42.5 +20.0 28 +48 +48 опасность
перегрева
1002.9 996.9 389
12 24.08 В 2-5
{8}
н/о н/о +44.8 +12.0 15 +44 +44 опасность
перегрева
1001.7 995.8 334
15 24.08 В 2-4
{7}
н/о н/о +39.5 +14.7 23 +40 +40 очень
душно
1002.0 996.0 40
18 24.08 ЮВ 3-5
{7}
н/о н/о +34.7 +21.9 47 +43 +43 опасность
перегрева
1003.0 996.9
21 24.08 З 2-2
{4}
н/о н/о +32.6 +21.2 51 +40 +40 очень
душно
1002.5 996.4 +31.3 +45.0
00 25.08 Ю 2-3
{5}
н/о н/о +30.2 +23.2 66 +40 +40 очень
душно
1002.9 996.7
03 25.08 Ю 3-5
{5}
н/о н/о +29.0 +23.5 72 +39 +39 очень
душно
1003.8 997.6 6
06 25.08 ЮЗ 2-4
{5}
н/о н/о +39.5 +17.1 27 +42 +42 опасность
перегрева
1003.9 997.9 262
09 25.08 Ю 2-5
{5}
н/о н/о +46.8 +8.4 10 +45 +45 опасность
перегрева
1001.9 996.0 403
12 25.08 С 2-4
{5}
н/о н/о +48.0 +4.5 8 +45 +45 опасность
перегрева
1000.2 994.4 324
15 25.08 ЮВ 4-6
{8}
н/о н/о +42.6 +9.4 14 +41 +41 опасность
перегрева
1000.1 994.2 35
18 25.08 В 1-2
{8}
н/о н/о +36.9 +10.1 20 +36 +36 очень
жарко
1001.9 995.8
21 25.08 ЮЗ 3-5
{6}
н/о н/о +34.8 +8.4 20 +33 +33 жарко 1001.4 995.3 +28.8 +48.8
00 26.08 СВ 2-3
{7}
н/о н/о +32.3 +9.7 25 +32 +32 жарко 1001.5 995.4

 

Местоположение метеостанции Сулайбия (Кувейт): широта 29.27 долгота 47.72 высота над уровнем моря 55 м.

В архиве по умолчанию представлена погода в Сулайбии за последнюю неделю. Архивные данные за месяц целиком и за предыдущие месяцы, начиная с января 2011 года, Вы можете получить, выбрав интересующий диапазон дат из раскрывающегося списка и нажав кнопку "Ввод!".


*Определитесь, кто Вы:
робот инопланетянин человек

Внимание! Время в таблицах - всемирное. Для получения местного времени необходимо прибавить поправку, которая равна 3 ч.

Смотрите также архив погоды в соседних городах и на ближайших метеорологических станциях:

Погода в Эль-Джахра (Кувейт) (7 км)
Погода на Экспериментальной ферме (Кувейт) (21 км)
Погода в Эль-Кувейте (Кувейт) (25 км)
Погода в Минагише (Кувейт) (29 км)
Погода в Кувейт Сити (Кувейт) (33 км)
Погода в Аль-Шуаиба (Кувейт) (38 км)
Погода на Метеостанции Jal Aliyah (Кувейт) (40 км)
Погода на Метеостанции Sabriyah (Кувейт) (55 км)
Погода Остров Файлака (Кувейт) (59 км)
Погода на Метеостанции Mintribah (Кувейт) (70 км)

Пояснения к столбцам:

Ветер - указаны скорость ветра в м/с - средняя за 10 мин, порывы в срок и между сроками (в фигурных скобках) и направление, откуда дует ветер: С - северный, СВ - северо-восточный, В - восточный, ЮВ - юго-восточный, Ю - южный, ЮЗ - юго-западный, З - западный, СЗ - северо-западный.
Видимость - горизонтальная дальность видимости в метрах или километрах. При видимости от 1 до 10 км при отсутствии осадков обычно наблюдается дымка, при ухудшении видимости до 1 км и менее - туман. В сухую погоду видимость может ухудшаться дымом, пылью или мглою.
Явления - указаны атмосферные явления, наблюдавшиеся в срок или в последний час перед сроком; фигурными скобками обозначены явления, наблюдавшиеся между сроками (за 1-3 часа до срока); квадратными скобками обозначены град или гололедные отложения с указанием их диаметра в мм.
Облачность - указаны через наклонную черту общая и нижняя облачность в баллах и высота нижней границы облаков в метрах; квадратными скобками обозначены формы облаков: Ci - перистые, Cs - перисто-слоистые, Cc - перисто-кучевые, Ac - высококучевые, As - высокослоистые, Sc - слоисто-кучевые, Ns - слоисто-дождевые, Cu - кучевые, Cb - кучево-дождевые. Подробнее классификацию облаков см. в Атласе облаков (PDF).
T - Температура воздуха - температура, измеренная на высоте 2 м над землей.
Td - Температура точки росы - температура, при понижении до которой содержащийся в воздухе водяной пар достигнет насыщения.
f - Относительная влажность воздуха - влажноcть воздуха, измеренная на высоте 2 м над землей.
Te - Эффективная температура - температура, которую ощущает одетый по сезону человек в тени. Характеристика душности погоды. При расчете учитывается влияние влажности воздуха и скорости ветра на теплоощущения человека.
Tes - Эффективная температура на солнце - температура, которую ощущает человек, с поправкой на солнечный нагрев. Характеристика знойности погоды. Зависит от высоты солнца над горизонтом, облачности и скорости ветра. Ночью, в пасмурную погоду, а также при ветре 12 м/с и более поправка равна нулю.
P - Атмосферное давление - приведенное к уровню моря атмосферное давление.
Po - Атмосферное давление - измеренное на уровне метеостанции атмосферное давление.
Tmin - Минимальная температура - минимум температуры воздуха на высоте 2 м над землей.
Tmax - Максимальная температура - максимум температуры воздуха на высоте 2 м над землей.
R - Количество осадков - Количество выпавших осадков за период времени, мм. При наведении курсора мыши на число - период времени, за который выпало указанное количество осадков.
R24 - Количество осадков - Количество выпавших осадков за 24 часа, мм.
S - Снежный покров - Высота снежного покрова, см. При наведении курсора мыши на число - состояние снежного покрова и степень покрытия местности в баллах.